Weather History for Brevig Mission Airport, AK

Change the Weather History Date:

Saturday, May 17, 2014

  Actual Average Record
Temperature  
Mean Temperature 34 °F -  
Max Temperature 39 °F - - ()
Min Temperature 30 °F - - ()
Degree Days  
Heating Degree Days 30    
Moisture  
Dew Point 32 °F    
Average Humidity 97    
Maximum Humidity 100    
Minimum Humidity 81    
Precipitation  
Precipitation 0.01 in - - ()
Sea Level Pressure  
Sea Level Pressure 30.20 in    
Wind  
Wind Speed 14 mph (WSW)    
Max Wind Speed 18 mph    
Max Gust Speed -    
Visibility 5 miles    
Events Fog , Rain , Snow    
T = Trace of Precipitation, MM = Missing Value Source: NWS Daily Summary

Daily Weather History Graph

Daily Weather History Graph

Search for Another Location

Airport:

Trip Planner

Search our weather history database for the weather conditions in past years. The results will help you decide how hot, cold, wet, or windy it might be!

Date:

Astronomy

May. 17, 2014 Rise Set
Actual Time 5:28 AM AKDT 12:38 AM AKDT
Civil Twilight 3:34 AM AKDT 2:29 AM AKDT
Nautical Twilight Sun does not rise Sun does not rise
Astronomical Twilight Sun does not rise Sun does not rise
Moon 2:45 AM AKDT (5/17) 8:36 AM AKDT (5/17)
Length of Visible Light 22h 55m
Length of Day
19h 10m
Waning Gibbous, 88% of the Moon is Illuminated
May 17
Waning Gibbous
May 21
Last Quarter
May 28
New
Jun 5
First Quarter
Jun 12
Full

Hourly Weather History & Observations

Time (AKDT) Temp. Windchill Dew Point Humidity Pressure Visibility Wind Dir Wind Speed Gust Speed Precip Events Conditions
12:12 AM 33.8 °F 22.8 °F 33.8 °F 100% 30.20 in 4.0 mi SSW 18.4 mph - 0.00 in   Overcast
12:29 AM 33.8 °F 23.5 °F 33.8 °F 100% 30.20 in 8.0 mi SSW 16.1 mph - 0.00 in Rain Light Rain
12:58 AM 33.1 °F 22.6 °F 33.1 °F 100% 30.21 in 9.0 mi SSW 16.1 mph - 0.00 in Rain Light Rain
1:18 AM 33.8 °F 23.5 °F 33.8 °F 100% 30.20 in 10.0 mi SSW 16.1 mph - 0.01 in Rain Light Rain
1:37 AM 33.8 °F 23.2 °F 33.8 °F 100% 30.20 in 6.0 mi SSW 17.3 mph - 0.01 in   Overcast
1:58 AM 34.0 °F 23.4 °F 34.0 °F 100% 30.20 in 4.0 mi SSW 17.3 mph - 0.01 in   Overcast
2:31 AM 33.8 °F 23.5 °F 33.8 °F 100% 30.19 in 2.5 mi SSW 16.1 mph - N/A   Overcast
2:37 AM 33.8 °F 23.5 °F 33.8 °F 100% 30.19 in 1.5 mi SSW 16.1 mph - N/A   Overcast
2:47 AM 33.8 °F 23.2 °F 33.8 °F 100% 30.19 in 1.0 mi SSW 17.3 mph - 0.00 in   Overcast
2:58 AM 33.1 °F 22.6 °F 33.1 °F 100% 30.19 in 0.8 mi SSW 16.1 mph - 0.00 in   Overcast
3:44 AM 33.8 °F 23.5 °F 33.8 °F 100% 30.19 in 1.0 mi SW 16.1 mph - 0.00 in Rain Light Rain
3:58 AM 33.1 °F 23.0 °F 33.1 °F 100% 30.19 in 0.8 mi SW 15.0 mph - 0.00 in   Overcast
4:06 AM 33.8 °F 24.3 °F 33.8 °F 100% 30.19 in 1.0 mi SW 13.8 mph - 0.00 in   Overcast
4:10 AM 33.8 °F 23.9 °F 33.8 °F 100% 30.19 in 1.2 mi SW 15.0 mph - 0.00 in   Overcast
4:32 AM 32.0 °F 21.6 °F 32.0 °F 100% 30.18 in 0.8 mi SW 15.0 mph - 0.00 in Rain Light Rain
4:41 AM 32.0 °F 22.1 °F 32.0 °F 100% 30.18 in 0.5 mi SW 13.8 mph - 0.00 in Fog Fog
4:57 AM 32.0 °F 23.0 °F 32.0 °F 100% 30.19 in 0.8 mi West 11.5 mph - 0.00 in   Overcast
5:00 AM 32.0 °F 23.6 °F 32.0 °F 100% 30.18 in 1.2 mi WSW 10.4 mph - 0.00 in   Overcast
5:07 AM 32.0 °F 23.6 °F 32.0 °F 100% 30.18 in 0.8 mi SW 10.4 mph - 0.00 in   Overcast
5:11 AM 32.0 °F 23.6 °F 32.0 °F 100% 30.18 in 0.2 mi WSW 10.4 mph - 0.00 in Fog Fog
5:25 AM 32.0 °F 23.0 °F 32.0 °F 100% 30.19 in 0.8 mi West 11.5 mph - 0.00 in   Overcast
5:27 AM 32.0 °F 23.0 °F 32.0 °F 100% 30.19 in 1.5 mi West 11.5 mph - 0.00 in   Overcast
5:31 AM 32.0 °F 22.5 °F 32.0 °F 100% 30.19 in 2.5 mi West 12.7 mph - 0.00 in   Overcast
5:39 AM 30.2 °F 20.8 °F 30.2 °F 100% 30.18 in 3.0 mi WSW 11.5 mph - 0.00 in   Overcast
5:44 AM 30.2 °F 20.2 °F 30.2 °F 100% 30.18 in 2.0 mi WSW 12.7 mph - 0.00 in   Overcast
5:48 AM 30.2 °F 20.2 °F 30.2 °F 100% 30.18 in 1.5 mi WSW 12.7 mph - 0.00 in   Overcast
5:51 AM 30.2 °F 20.8 °F 30.2 °F 100% 30.19 in 0.8 mi WSW 11.5 mph - 0.00 in Snow Light Snow
5:56 AM 30.2 °F 21.3 °F 30.2 °F 100% 30.19 in 0.5 mi WSW 10.4 mph - 0.00 in Fog , Snow Light Snow
5:58 AM 30.9 °F 22.2 °F 30.9 °F 100% 30.19 in 0.5 mi WSW 10.4 mph - 0.00 in Fog , Snow Light Snow
6:02 AM 30.2 °F 21.3 °F 30.2 °F 100% 30.18 in 0.2 mi SW 10.4 mph - 0.00 in Fog , Snow Light Snow
6:27 AM 30.2 °F 20.8 °F 30.2 °F 100% 30.18 in 0.5 mi WSW 11.5 mph - 0.00 in Fog , Snow Light Snow
6:45 AM 30.2 °F 21.3 °F 30.2 °F 100% 30.18 in 0.8 mi WSW 10.4 mph - 0.00 in Snow Light Snow
6:54 AM 30.2 °F 20.8 °F 30.2 °F 100% 30.18 in 0.5 mi WSW 11.5 mph - 0.00 in Fog , Snow Light Snow
6:58 AM 30.9 °F 21.7 °F 30.9 °F 100% 30.19 in 0.2 mi WSW 11.5 mph - 0.00 in Fog , Snow Light Snow
7:05 AM 30.2 °F 21.3 °F 30.2 °F 100% 30.18 in 0.5 mi WSW 10.4 mph - 0.00 in Fog , Snow Light Snow
7:08 AM 30.2 °F 20.8 °F 30.2 °F 100% 30.18 in 1.0 mi West 11.5 mph - 0.00 in Snow Light Snow
7:11 AM 30.2 °F 21.9 °F 30.2 °F 100% 30.18 in 2.5 mi West 9.2 mph - 0.00 in Snow Light Snow
7:16 AM 30.2 °F 21.9 °F 30.2 °F 100% 30.18 in 3.0 mi West 9.2 mph - 0.00 in Snow Light Snow
7:21 AM 30.2 °F 21.9 °F 30.2 °F 100% 30.18 in 1.5 mi West 9.2 mph - 0.00 in   Overcast
7:24 AM 30.2 °F 21.9 °F 30.2 °F 100% 30.18 in 0.8 mi SW 9.2 mph - 0.00 in   Overcast
7:39 AM 30.2 °F 20.2 °F 30.2 °F 100% 30.18 in 0.5 mi SW 12.7 mph - 0.00 in Fog Light Freezing Fog
7:58 AM 30.9 °F 21.2 °F 30.9 °F 100% 30.20 in 0.5 mi SW 12.7 mph - 0.00 in Fog , Snow Light Snow
8:14 AM 30.2 °F 22.6 °F 30.2 °F 100% 30.19 in 0.8 mi WSW 8.1 mph - 0.00 in Snow Light Snow
8:33 AM 30.2 °F 20.8 °F 30.2 °F 100% 30.18 in 1.2 mi SW 11.5 mph - 0.00 in Snow Light Snow
8:37 AM 30.2 °F 19.3 °F 30.2 °F 100% 30.18 in 0.8 mi SW 15.0 mph - 0.00 in Snow Light Snow
8:43 AM 30.2 °F 19.3 °F 30.2 °F 100% 30.18 in 0.5 mi SW 15.0 mph - 0.00 in Fog , Snow Light Snow
8:49 AM 30.2 °F 18.1 °F 30.2 °F 100% 30.17 in 1.0 mi SW 18.4 mph - 0.00 in Snow Light Snow
8:54 AM 30.2 °F 19.3 °F 30.2 °F 100% 30.18 in 1.5 mi WSW 15.0 mph - 0.00 in   Overcast
8:58 AM 30.9 °F 19.4 °F 30.9 °F 100% 30.18 in 1.2 mi SW 17.3 mph - 0.00 in   Overcast
9:03 AM 30.2 °F 19.8 °F 30.2 °F 100% 30.18 in 1.0 mi WSW 13.8 mph - N/A   Overcast
9:08 AM 30.2 °F 19.8 °F 30.2 °F 100% 30.18 in 2.5 mi SW 13.8 mph - N/A   Overcast
9:12 AM 30.2 °F 19.3 °F 30.2 °F 100% 30.18 in 4.0 mi SW 15.0 mph - N/A   Overcast
9:58 AM 30.9 °F 20.7 °F 30.9 °F 100% 30.19 in 10.0 mi WSW 13.8 mph - N/A   Overcast
10:47 AM 32.0 °F 23.0 °F 32.0 °F 100% 30.20 in 10.0 mi WSW 11.5 mph - N/A   Overcast
10:58 AM 32.0 °F 23.0 °F 32.0 °F 100% 30.21 in 10.0 mi WSW 11.5 mph - N/A   Overcast
11:44 AM 33.8 °F 24.8 °F 33.8 °F 100% 30.21 in 10.0 mi WSW 12.7 mph - N/A   Overcast
11:58 AM 35.1 °F 26.9 °F 33.1 °F 92% 30.21 in 10.0 mi WSW 11.5 mph - N/A   Overcast
12:09 PM 35.6 °F 29.9 °F 33.8 °F 93% 30.22 in 10.0 mi West 6.9 mph - N/A   Overcast
12:17 PM 35.6 °F 28.6 °F 33.8 °F 93% 30.21 in 10.0 mi WSW 9.2 mph - N/A   Overcast
12:58 PM 37.0 °F 31.0 °F 34.0 °F 89% 30.22 in 10.0 mi SW 8.1 mph - N/A   Overcast
1:21 PM 39.2 °F 34.2 °F 35.6 °F 87% 30.22 in 10.0 mi SSW 6.9 mph - N/A   Overcast
1:30 PM 39.2 °F 33.6 °F 33.8 °F 81% 30.22 in 10.0 mi WSW 8.1 mph - N/A   Overcast
1:58 PM 37.0 °F 28.5 °F 32.0 °F 82% 30.22 in 10.0 mi West 13.8 mph - N/A   Overcast
2:58 PM 36.0 °F 27.5 °F 32.0 °F 86% 30.24 in 10.0 mi West 12.7 mph - N/A   Overcast
3:39 PM 35.6 °F 27.1 °F 32.0 °F 87% 30.24 in 10.0 mi West 12.7 mph - N/A   Overcast
3:58 PM 35.1 °F 25.9 °F 32.0 °F 89% 30.24 in 10.0 mi West 13.8 mph - N/A   Overcast
4:13 PM 35.6 °F 27.1 °F 32.0 °F 87% 30.24 in 10.0 mi West 12.7 mph - N/A   Overcast
4:58 PM 36.0 °F 28.5 °F 33.1 °F 89% 30.24 in 10.0 mi WSW 10.4 mph - N/A   Overcast
5:38 PM 33.8 °F 24.8 °F 32.0 °F 93% 30.24 in 10.0 mi WSW 12.7 mph - N/A   Overcast
5:58 PM 34.0 °F 25.0 °F 32.0 °F 92% 30.25 in 10.0 mi West 12.7 mph - N/A   Overcast
6:58 PM 34.0 °F 26.0 °F 32.0 °F 92% 30.25 in 10.0 mi West 10.4 mph - N/A   Overcast
7:43 PM 33.8 °F 25.8 °F 33.8 °F 100% 30.25 in 10.0 mi West 10.4 mph - N/A   Overcast
7:58 PM 34.0 °F 26.6 °F 32.0 °F 92% 30.26 in 10.0 mi West 9.2 mph - N/A   Overcast
8:17 PM 33.8 °F 24.8 °F 32.0 °F 93% 30.25 in 10.0 mi West 12.7 mph - N/A   Overcast
8:58 PM 34.0 °F 26.0 °F 32.0 °F 92% 30.26 in 10.0 mi West 10.4 mph - N/A   Overcast
9:58 PM 34.0 °F 26.6 °F 32.0 °F 92% 30.27 in 10.0 mi West 9.2 mph - N/A   Overcast
10:58 PM 33.1 °F 28.7 °F 32.0 °F 96% 30.27 in 10.0 mi WNW 4.6 mph - N/A   Overcast
11:58 PM 34.0 °F 28.8 °F 30.9 °F 89% 30.27 in 10.0 mi NNW 5.8 mph - N/A   Overcast